Regional Weather Roundup
Issued by NWS Little Rock, AR

Home | Current Version | Previous Version | Text Only | Print | Product List | Glossary Off
Versions: 1 2 3 4 5 6 7 8 9 10 11 12 13 14 15 16 17 18 19 20 21 22 23 24 25 26 27 28 29 30 31 32 33 34 35 36 37 38 39 40 41 42 43 44 45 46 47 48 49 50

000
ASUS44 KLZK 240005
RWRLZK

WEATHER ROUNDUP FOR ARKANSAS
NATIONAL WEATHER SERVICE LITTLE ROCK AR
700 PM CDT SAT JUL 23 2016

NOTE: "FAIR" INDICATES FEW OR NO CLOUDS BELOW 12,000 FEET WITH NO
SIGNIFICANT WEATHER AND/OR OBSTRUCTIONS TO VISIBILITY.

ARZ001-003-010-029-240100-
NORTHWEST ARKANSAS

CITY           SKY/WX    TMP DP  RH WIND       PRES   REMARKS
FAYETTEVILLE   SUNNY     91  76  61 S5        29.92S HX 103
6HR MIN TEMP:  91; 6HR MAX TEMP:  94;

FORT SMITH     CLOUDY    91  70  49 S8        29.87S HX  96
6HR MIN TEMP:  91; 6HR MAX TEMP: 101;

HARRISON       PTSUNNY   92  74  55 E7        29.94R HX 101
6HR MIN TEMP:  91; 6HR MAX TEMP:  96;

BENTONVILLE    SUNNY     95  70  43 CALM      29.93F HX 101
6HR MIN TEMP:  91; 6HR MAX TEMP:  97;

ROGERS         SUNNY     92  75  57 SE6       29.94S HX 103
6HR MIN TEMP:  92; 6HR MAX TEMP:  96;

SILOAM SPGS    SUNNY     95  68  41 CALM      29.93S HX  99
6HR MIN TEMP:  93; 6HR MAX TEMP:  97;

HIGHFILL       SUNNY     94  74  52 CALM      29.91F HX 104
6HR MIN TEMP:  93; 6HR MAX TEMP:  97;

SPRINGDALE     MOSUNNY   93  73  52 SE5       29.94S HX 102
$$

ARZ004-005-016-240100-
NORTH CENTRAL ARKANSAS

CITY           SKY/WX    TMP DP  RH WIND       PRES   REMARKS
BATESVILLE     CLOUDY    82  70  65 CALM      29.93S HX  86
6HR MIN TEMP:  82; 6HR MAX TEMP:  99;

FLIPPIN        SUNNY     93  73  52 CALM      29.89S HX 102
6HR MIN TEMP:  93; 6HR MAX TEMP:  99;

MTN HOME       CLOUDY    92  77  61 CALM      29.90S HX 105
6HR MIN TEMP:  91; 6HR MAX TEMP:  97;

$$

ARZ040-041-240100-
WEST CENTRAL ARKANSAS

CITY           SKY/WX    TMP DP  RH WIND       PRES   REMARKS
MENA           CLOUDY    82  79  89 W3        29.95R HX  93
MOUNT IDA      CLOUDY    83  78  85 CALM      29.92R HX  93
6HR MIN TEMP:  76; 6HR MAX TEMP: 101; 6HR PCP:  0.41;

$$

ARZ009-017-025-026-028-240100-
NORTHEAST ARKANSAS

CITY           SKY/WX    TMP DP  RH WIND       PRES   REMARKS
CORNING          N/A     90  77  66 E7        29.89F HX 102
JONESBORO      CLOUDY    85  75  72 S8        29.90S HX  93
6HR MIN TEMP:  85; 6HR MAX TEMP:  92; 6HR PCP: TRACE;

NEWPORT        CLOUDY    84  73  69 S6        29.92S HX  90
6HR MIN TEMP:  82; 6HR MAX TEMP:  97; 6HR PCP: TRACE;

WALNUT RIDGE   CLOUDY    88  79  74 S12       29.88F HX 102
6HR MIN TEMP:  88; 6HR MAX TEMP:  97;

BLYTHEVILLE    CLOUDY    89  79  72 SW6       29.91R HX 104
6HR MIN TEMP:  88; 6HR MAX TEMP:  93;

$$

ARZ022-023-033-042-044-240100-
CENTRAL ARKANSAS

CITY           SKY/WX    TMP DP  RH WIND       PRES   REMARKS
LITTLE ROCK    TSTM      79  71  76 SW20G26   29.92R
6HR MIN TEMP:  79; 6HR MAX TEMP: 100; 6HR PCP:  0.11;

N LITTLE ROCK    N/A     77  71  83 SW9G22    29.89R
6HR MIN TEMP:  77; 6HR MAX TEMP:  97;

JACKSONVILLE   CLOUDY    77  71  82 W6        29.92R
6HR MIN TEMP:  74; 6HR MAX TEMP: 100; 6HR PCP:  0.06;

SEARCY         CLOUDY    77  70  79 S3        29.93R
6HR MIN TEMP:  77; 6HR MAX TEMP: 101;

HOT SPRINGS    CLOUDY    79  74  84 E7        29.95R
6HR MIN TEMP:  77; 6HR MAX TEMP: 102; 6HR PCP:  0.07;

RUSSELLVILLE   PTSUNNY   89  75  63 S6        29.89R HX  99
6HR MIN TEMP:  89; 6HR MAX TEMP:  99;

$$

ARZ036-240100-
EAST ARKANSAS

CITY           SKY/WX    TMP DP  RH WIND       PRES   REMARKS
WEST MEMPHIS   CLOUDY    83  76  79 S5        29.88F HX  91
6HR MIN TEMP:  83; 6HR MAX TEMP:  89;

$$

ARZ050-053-066-070-073-240100-
SOUTHWEST ARKANSAS

CITY           SKY/WX    TMP DP  RH WIND       PRES   REMARKS
CAMDEN         CLOUDY    77  68  73 N5        29.93R
TEXARKANA      CLOUDY    76  73  91 SW9       29.90F
6HR MIN TEMP:  75; 6HR MAX TEMP: 100; 6HR PCP:  0.37;

EL DORADO      CLOUDY    82  72  71 CALM      29.92R HX  87
6HR MIN TEMP:  77; 6HR MAX TEMP:  97;

DE QUEEN       CLOUDY    82  73  74 VRB3      29.88F HX  87
6HR MIN TEMP:  82; 6HR MAX TEMP: 101; 6HR PCP: TRACE;

$$

ARZ056-057-069-240100-
SOUTHEAST ARKANSAS

CITY           SKY/WX    TMP DP  RH WIND       PRES   REMARKS
PINE BLUFF     LGT RAIN  76  71  85 NW9       29.97R
6HR MIN TEMP:  76; 6HR MAX TEMP:  99; 6HR PCP: TRACE;

STUTTGART      CLOUDY    81  66  61 S7        29.93R
6HR MIN TEMP:  81; 6HR MAX TEMP: 100;

MONTICELLO     CLOUDY    80  74  81 W9        29.94R THUNDER HX  85
6HR MIN TEMP:  79; 6HR MAX TEMP:  98; 6HR PCP:  0.10;


$$





USA.gov is the U.S. government's official web portal to all federal, state and local government web resources and services.